Regional Weather Roundup
Issued by NWS

Home | Current Version | Previous Version | Graphics & Text | Print | Product List | Glossary On
Versions: 1 2 3 4 5 6 7 8 9 10 11 12 13 14 15 16 17 18 19 20 21 22 23 24 25 26 27 28 29 30 31 32 33 34 35 36 37 38 39 40 41 42 43 44 45 46 47 48 49 50
000
ASUS43 KMPX 222110
RWRMN
WEATHER ROUNDUP FOR MINNESOTA
NATIONAL WEATHER SERVICE TWIN CITIES/CHANHASSEN MN
400 PM CDT TUE AUG 22 2017


NOTE: "FAIR" INDICATES FEW OR NO CLOUDS BELOW 12,000 FEET WITH NO
SIGNIFICANT WEATHER AND/OR OBSTRUCTIONS TO VISIBILITY. N/A MEANS
CURRENT SKY AND/OR WEATHER CONDITIONS ARE NOT AVAILABLE.

MNZ060>063-068>070-222200-
   Twin Cities Metro

CITY           SKY/WX    TMP DP  RH WIND       PRES   REMARKS
TWIN CITIES    MOSUNNY   74  49  41 NW18G25   30.03S
ST PAUL        PTSUNNY   74  48  39 NW20G28   30.02F
CRYSTAL        MOSUNNY   75  43  31 NW18G26   30.02S
BLAINE         PTSUNNY   73  45  35 NW13G23   30.03R
LAKEVILLE      MOSUNNY   70  48  46 NW13G20   30.04S
EDEN PRAIRIE   PTSUNNY   76  49  38 NW15G28   30.03F
SOUTH ST PAUL  MOSUNNY   74  46  36 NW13G23   30.02S
LAKE ELMO      FAIR      70  48  46 NW13      30.03S
$$
MNZ001>005-007-008-013>017-022>024-027-028-222200-
   Northwest Minnesota

CITY           SKY/WX    TMP DP  RH WIND       PRES   REMARKS
BEMIDJI        PTSUNNY   70  45  40 NW22G28   30.02S
HALLOCK        MOSUNNY   75  41  29 NW25G32   30.02F
ROSEAU         MOSUNNY   68  55  64 N16G25    30.02R
WARROAD        LGT RAIN  61  55  82 NW12G18   30.02R
THIEF RVR FALL PTSUNNY   72  44  36 NW24G30   30.04S
CROOKSTON      MOSUNNY   73  43  33 N18G29    30.05S
FOSSTON        SUNNY     73  39  29 NW17G26   30.05S
DETROIT LAKES  SUNNY     72  41  33 NW22G29   30.07F
MOORHEAD       MOSUNNY   75  41  29 NW17G26   30.08S
PARK RAPIDS    PTSUNNY   73  43  33 NW20G32   30.04R
MAHNOMEN       FAIR      71  44  36 NW17G24   30.05S
$$
MNZ006-009>011-018-025>026-222200-
   North Central Minnesota

CITY           SKY/WX    TMP DP  RH WIND       PRES   REMARKS
BAUDETTE       CLOUDY    64  56  75 NW15G25   29.98R
FLAG ISLAND    SUNNY     64  52  63 N14G22    29.99R
INTL FALLS     PTSUNNY   64  54  69 NW13G20   29.93S
WASKISH        CLOUDY    61  59  94 N5        30.00R
BIG FORK       PTSUNNY   63  52  67 W5        29.98S
LONGVILLE      CLOUDY    70  46  43 NW9G21    30.01S
GRAND RAPIDS   CLOUDY    68  47  46 NW23G32   29.99S
CRANE LAKE     LGT RAIN  61  54  77 W6        29.93R
ORR            MOSUNNY   64  50  59 NW17      29.92R
COOK           MOSUNNY   64  54  68 W18G25    29.94S
WALKER         CLOUDY    67  46  47 NW12G18   30.02S
$$
MNZ012-019>021-037-222200-
   Northeast Minnesota

CITY           SKY/WX    TMP DP  RH WIND       PRES   REMARKS
DULUTH         PTSUNNY   65  51  60 W14G25    29.95R
ELY            PTSUNNY   61  50  67 W14G25    29.90F
HIBBING        CLOUDY    61  57  87 NW9       29.96S
EVELETH        MOSUNNY   63  48  58 W14G21    29.96S
DULUTH HARBOR  PTSUNNY   70  55  60 W20G25    29.94S
TWO HARBORS    MOSUNNY   70  55  60 W18G29    29.91R
GRAND MARAIS     N/A     65  56  72 W8        29.84R
G MARAIS ARPRT MOSUNNY   63  46  55 W10G21    29.87R
$$
MNZ029>031-032-039>041-046>048-054>057-064-222200-
   West Central Minnesota

CITY           SKY/WX    TMP DP  RH WIND       PRES   REMARKS
FERGUS FALLS   MOSUNNY   72  46  40 NW17G28   30.08S
WHEATON        SUNNY     73  43  33 W15G22    30.11F
MORRIS         SUNNY     75  46  35 NW15G22   30.09F
ALEXANDRIA     MOSUNNY   72  46  39 NW18G29   30.10F
ELBOW LAKE     FAIR      70  47  44 W16       30.10F
WADENA         MOSUNNY   72  46  40 W14G21    30.05F
GLENWOOD       SUNNY     73  45  35 NW20G25   30.10S
APPLETON       SUNNY     73  45  35 NW12      30.10F
BENSON         SUNNY     75  43  31 N17G25    30.11F
ORTONVILLE     SUNNY     73  46  38 MISG      30.11F
MADISON        SUNNY     75  48  38 N14       30.12S
WILLMAR        FAIR      73  46  38 NW21      30.11S
$$
MNZ033>034-036-042>043-049>051-058-059-222200-
   Central Minnesota

CITY           SKY/WX    TMP DP  RH WIND       PRES   REMARKS
ST CLOUD       MOSUNNY   73  48  41 NW17G25   30.04F
SAUK CENTRE    FAIR      73  47  40 NW17      30.08F
PAYNESVILLE    MOSUNNY   71  48  43 NW15G21   30.09S
AITKIN         MOSUNNY   70  46  43 NW9G21    30.00S
PINE RIVER     MOSUNNY   66  45  45 NW10G21   30.05S
BRAINERD       PTSUNNY   69  45  41 NW13G24   30.02F
STAPLES        MOSUNNY   72  41  33 W16       30.05S
LONG PRAIRIE   FAIR      70  46  43 W12G20    30.07F
LITTLE FALLS   MOSUNNY   70  43  37 W9        30.05F
LITCHFIELD     SUNNY     73  46  38 NW17G24   30.09R
BUFFALO        MOSUNNY   73  43  33 W17G24    30.06S
MAPLE LAKE     MOSUNNY   73  49  41 NW15      30.07S
HUTCHINSON     MOSUNNY   72  50  45 NW15G24   30.09S
$$
MNZ037-044-045-052-053-222200-
   East Central Minnesota

CITY           SKY/WX    TMP DP  RH WIND       PRES   REMARKS
PRINCETON      SUNNY     75  46  35 W16G24    30.03F
MORA           SUNNY     70  46  43 NW12G22   30.03S
CAMBRIDGE      SUNNY     75  52  43 NW15G23   30.02F
RUSH CITY      PTSUNNY   71  47  42 NW14G20   30.02R HAZE
MOOSE LAKE     PTSUNNY   72  45  37 NW14G24   29.96F
HINCKLEY       CLOUDY    70  46  43 NW9G23    30.00S
CLOQUET        PTSUNNY   70  46  43 W17       29.96S
MCGREGOR       PTSUNNY   70  46  43 W13G18    30.00S
$$
MNZ071>073-080-081-089-090-097-098-222200-
   Southwest Minnesota

CITY           SKY/WX    TMP DP  RH WIND       PRES   REMARKS
MONTEVIDEO     SUNNY     75  50  41 N14G22    30.11F
GRANITE FALLS  SUNNY     74  48  40 NW17G24   30.13S
CANBY          SUNNY     74  48  39 W18G24    30.14S
MARSHALL       SUNNY     73  50  44 NW14G23   30.12F
REDWOOD FALLS  SUNNY     74  45  35 NW17G25   30.10S
OLIVIA         MOSUNNY   73  50  43 NW17G24   30.09S
PIPESTONE      SUNNY     73  45  35 NW13G22   30.16S
WINDOM         SUNNY     72  46  40 NW15G22   30.13S
WORTHINGTON    SUNNY     72  50  45 NW13      30.15F
JACKSON        SUNNY     70  50  49 NW16      30.13F
TRACY          SUNNY     72  52  48 NW12      30.13F
SLAYTON        SUNNY     71  43  36 NW15      30.16S
$$
MNZ065>067-074>077-082>085-091>093-222200-
   South Central Minnesota

CITY           SKY/WX    TMP DP  RH WIND       PRES   REMARKS
MANKATO        SUNNY     72  50  45 NW17G26   30.08S
NEW ULM        SUNNY     72  46  40 NW16G25   30.09S
ST JAMES       SUNNY     73  48  40 NW14G22   30.11S
FAIRMONT       SUNNY     73  51  46 NW13G20   30.11
GLENCOE        MOSUNNY   73  52  48 W14G25    30.07S
FARIBAULT      MOSUNNY   72  52  49 W9G24     30.06S
OWATONNA       MOSUNNY   72  54  53 NW16G22   30.06F
WASECA         MOSUNNY   72  52  49 NW15G22   30.09S
ALBERT LEA     SUNNY     73  50  43 NW13G20   30.08S
$$
MNZ078>079-086>088-094>096-222200-
   Southeast Minnesota

CITY           SKY/WX    TMP DP  RH WIND       PRES   REMARKS
ROCHESTER      MOSUNNY   71  53  52 NW16      30.05F
RED WING       MOSUNNY   75  45  33 NW8G17    30.00F
STANTON        SUNNY     73  49  42 W17G24    30.03S
DODGE CENTER   SUNNY     70  48  46 NW20G26   30.06S
WINONA         MOSUNNY   73  50  43 NW12G18   30.01F
AUSTIN         MOSUNNY   72  48  43 W18G25    30.06S
PRESTON        SUNNY     70  49  47 NW14G24   30.05F
$$
ABBREVIATIONS USED IN REMARKS
   TC - TEMPERATURES IN CELSIUS
  WCI - WIND CHILL INDEX
   HX - HEAT INDEX
  VSB - VISIBILITY
$$




USA.gov is the U.S. government's official web portal to all federal, state and local government web resources and services.